Location: Unspecified
(0.0000°N, 0.0000°E)
Time: 05:20:23
(UTC+00:00)

N. Korean satellite - Pass Details

Date: 02 August 2020
Orbit: 453 x 506 km, 97.2° (Epoch: 13 August)

Event Time Altitude Azimuth Distance (km) Brightness Sun altitude
Rises 05:31:19 0° 359° (N) 2,501 10.4 -8.3°
Reaches altitude 10° 05:33:25 10° 351° (N) 1,636 9.4 -7.8°
Maximum altitude 05:36:44 39° 281° (W) 733 7.1 -7.0°
Drops below altitude 10° 05:40:07 10° 211° (SSW) 1,673 8.8 -6.2°
Sets 05:42:17 0° 203° (SSW) 2,566 9.8 -5.7°
